User: anonymous
Location: Unspecified
(0.0000°N, 0.0000°E)
Time: 15:27:21
(UTC+00:00)
Language:

WGS F2 (USA 204) - Orbit

View from above orbital plane
View from above orbital plane
View from above satellite
View from above satellite

Ground track
Ground track

The orbit data is extracted from the following two-line orbital elements,

1 34713U 09017A   14090.00577838 0.00000000  00000-0  00000-0 0    00
2 34713   0.0130 250.5216 0003453 202.1562 157.8407  1.00270000    00
Epoch (UTC): 31 March 2014 00:08:19
Eccentricity: 0.0003453
inclination: 0.0130°
perigee height: 35772 km
apogee height: 35801 km
right ascension of ascending node: 250.5216°
argument of perigee: 202.1562°
revolutions per day: 1.00270000
mean anomaly at epoch: 157.8407°
orbit number at epoch: 0

The dashed part of the orbit path shows where the satellite is in the earth's shadow,  

DLR